• In Italy
  • List of Countries
  • For 7 days
  • Water Temperature
  • Satellite Maps
  • Weather Map
  • Weather Widgets
  • user-avatar
    Login

    Hourly Weather Girdi

    Today, 21 July, Saturday

    Time Temperature Precipitation Wind Pressure Humidity
    00:00 +18°C° 0 mm 2 mps 731 mmHg 91%
    01:00 +18°C° 0 mm 2 mps 731 mmHg 92%
    02:00 +18°C° 0 mm 2 mps 731 mmHg 93%
    03:00 +17°C° 0 mm 2 mps 731 mmHg 94%
    04:00 +17°C° 0 mm 2 mps 731 mmHg 94%
    05:00 +17°C° 0 mm 2 mps 731 mmHg 95%
    06:00 +18°C° 0 mm 2 mps 731 mmHg 92%
    07:00 +20°C° 0 mm 2 mps 731 mmHg 89%
    08:00 +21°C° 0 mm 3 mps 732 mmHg 86%
    09:00 +22°C° 0.3 mm 3 mps 732 mmHg 81%
    10:00 +24°C° 0.3 mm 3 mps 732 mmHg 76%
    11:00 +25°C° 0.3 mm 3 mps 732 mmHg 71%
    12:00 +26°C° 0.3 mm 3 mps 732 mmHg 69%
    13:00 +26°C° 0.3 mm 3 mps 732 mmHg 68%
    14:00 +27°C° 0.3 mm 3 mps 732 mmHg 66%
    15:00 +26°C° 0.2 mm 3 mps 732 mmHg 67%
    16:00 +26°C° 0.2 mm 3 mps 732 mmHg 68%
    17:00 +26°C° 0.2 mm 3 mps 732 mmHg 69%
    18:00 +25°C° 0.1 mm 3 mps 732 mmHg 74%
    19:00 +22°C° 0.1 mm 3 mps 732 mmHg 79%
    20:00 +21°C° 0.1 mm 2 mps 732 mmHg 84%
    21:00 +20°C° 0 mm 2 mps 732 mmHg 86%
    22:00 +19°C° 0 mm 2 mps 732 mmHg 88%
    23:00 +18°C° 0 mm 2 mps 732 mmHg 91%

    Tomorrow, 22 July, Sunday

    Time Temperature Precipitation Wind Pressure Humidity
    00:00 +18°C° 0 mm 2 mps 732 mmHg 91%
    01:00 +18°C° 0 mm 3 mps 732 mmHg 91%
    02:00 +17°C° 0 mm 3 mps 732 mmHg 92%
    03:00 +17°C° 0 mm 2 mps 732 mmHg 92%
    04:00 +17°C° 0 mm 2 mps 732 mmHg 92%
    05:00 +17°C° 0 mm 2 mps 732 mmHg 93%
    06:00 +18°C° 0 mm 2 mps 732 mmHg 90%
    07:00 +19°C° 0 mm 2 mps 733 mmHg 87%
    08:00 +20°C° 0 mm 3 mps 733 mmHg 85%
    09:00 +21°C° 0.1 mm 3 mps 733 mmHg 82%
    10:00 +21°C° 0.1 mm 3 mps 733 mmHg 80%
    11:00 +22°C° 0.1 mm 3 mps 733 mmHg 77%
    12:00 +24°C° 0 mm 3 mps 733 mmHg 75%
    13:00 +24°C° 0 mm 3 mps 733 mmHg 73%
    14:00 +25°C° 0 mm 4 mps 732 mmHg 71%
    15:00 +25°C° 0.1 mm 3 mps 732 mmHg 72%
    16:00 +25°C° 0.1 mm 3 mps 732 mmHg 73%
    17:00 +25°C° 0.1 mm 3 mps 732 mmHg 75%
    18:00 +24°C° 0.2 mm 3 mps 732 mmHg 79%
    19:00 +22°C° 0.2 mm 3 mps 732 mmHg 82%
    20:00 +21°C° 0.2 mm 3 mps 732 mmHg 86%
    21:00 +20°C° 0.2 mm 3 mps 732 mmHg 88%
    22:00 +20°C° 0.2 mm 3 mps 732 mmHg 90%
    23:00 +19°C° 0.2 mm 3 mps 732 mmHg 92%

    Day after tomorrow, 23 July, Monday

    Time Temperature Precipitation Wind Pressure Humidity
    00:00 +19°C° 0.3 mm 3 mps 732 mmHg 94%
    01:00 +18°C° 0.3 mm 3 mps 732 mmHg 95%
    02:00 +18°C° 0.3 mm 3 mps 732 mmHg 96%
    03:00 +18°C° 0.5 mm 3 mps 732 mmHg 96%
    04:00 +18°C° 0.5 mm 3 mps 732 mmHg 96%
    05:00 +18°C° 0.5 mm 3 mps 732 mmHg 96%
    06:00 +19°C° 0.2 mm 3 mps 732 mmHg 95%
    07:00 +20°C° 0.2 mm 3 mps 732 mmHg 93%
    08:00 +20°C° 0.2 mm 3 mps 732 mmHg 92%
    09:00 +21°C° 0.4 mm 3 mps 732 mmHg 88%
    10:00 +22°C° 0.4 mm 3 mps 732 mmHg 85%
    11:00 +24°C° 0.4 mm 3 mps 733 mmHg 82%
    12:00 +24°C° 0.8 mm 3 mps 733 mmHg 79%
    13:00 +25°C° 0.8 mm 3 mps 732 mmHg 76%
    14:00 +25°C° 0.8 mm 3 mps 732 mmHg 74%
    15:00 +25°C° 1.2 mm 3 mps 732 mmHg 75%
    16:00 +25°C° 1.2 mm 3 mps 732 mmHg 76%
    17:00 +25°C° 1.2 mm 3 mps 732 mmHg 77%
    18:00 +24°C° 0.8 mm 3 mps 732 mmHg 81%
    19:00 +22°C° 0.8 mm 3 mps 732 mmHg 84%
    20:00 +20°C° 0.8 mm 2 mps 732 mmHg 88%
    21:00 +20°C° 0 mm 2 mps 732 mmHg 90%
    22:00 +19°C° 0 mm 2 mps 732 mmHg 92%
    23:00 +18°C° 0 mm 2 mps 733 mmHg 93%

    24 July, Tuesday

    Time Temperature Precipitation Wind Pressure Humidity
    00:00 +18°C° 0 mm 2 mps 732 mmHg 94%
    01:00 +17°C° 0 mm 2 mps 732 mmHg 95%
    02:00 +18°C° 0 mm 1 mps 732 mmHg 96%
    03:00 +18°C° 0 mm 1 mps 732 mmHg 96%
    04:00 +18°C° 0 mm 1 mps 732 mmHg 96%
    05:00 +18°C° 0 mm 1 mps 732 mmHg 97%
    06:00 +18°C° 0 mm 2 mps 733 mmHg 93%
    07:00 +19°C° 0 mm 2 mps 733 mmHg 90%
    08:00 +20°C° 0 mm 2 mps 733 mmHg 87%
    09:00 +21°C° 0.2 mm 2 mps 733 mmHg 83%
    10:00 +22°C° 0.2 mm 3 mps 733 mmHg 80%
    11:00 +24°C° 0.2 mm 3 mps 733 mmHg 76%
    12:00 +24°C° 1 mm 3 mps 733 mmHg 76%
    13:00 +24°C° 1 mm 3 mps 733 mmHg 76%
    14:00 +25°C° 1 mm 3 mps 733 mmHg 77%
    15:00 +25°C° 0.8 mm 3 mps 733 mmHg 78%
    16:00 +24°C° 0.8 mm 3 mps 733 mmHg 79%
    17:00 +24°C° 0.8 mm 3 mps 733 mmHg 80%
    18:00 +22°C° 0.1 mm 3 mps 733 mmHg 84%
    19:00 +21°C° 0.1 mm 3 mps 733 mmHg 88%
    20:00 +20°C° 0.1 mm 2 mps 733 mmHg 92%
    21:00 +19°C° 0 mm 2 mps 733 mmHg 93%
    22:00 +19°C° 0 mm 2 mps 733 mmHg 95%
    23:00 +18°C° 0 mm 2 mps 733 mmHg 96%

    25 July, Wednesday

    Time Temperature Precipitation Wind Pressure Humidity
    00:00 +18°C° 0 mm 2 mps 733 mmHg 97%
    01:00 +18°C° 0 mm 2 mps 733 mmHg 97%
    02:00 +18°C° 0 mm 2 mps 733 mmHg 98%
    03:00 +18°C° 0.1 mm 2 mps 733 mmHg 98%
    04:00 +18°C° 0.1 mm 2 mps 733 mmHg 97%
    05:00 +19°C° 0.1 mm 2 mps 733 mmHg 97%
    06:00 +19°C° 0 mm 3 mps 733 mmHg 96%
    07:00 +19°C° 0 mm 3 mps 734 mmHg 95%
    08:00 +20°C° 0 mm 3 mps 734 mmHg 94%
    09:00 +20°C° 0.1 mm 3 mps 734 mmHg 92%
    10:00 +21°C° 0.1 mm 3 mps 734 mmHg 90%
    11:00 +21°C° 0.1 mm 3 mps 734 mmHg 87%
    12:00 +22°C° 0.4 mm 3 mps 734 mmHg 85%
    13:00 +24°C° 0.4 mm 3 mps 734 mmHg 84%
    14:00 +24°C° 0.4 mm 2 mps 734 mmHg 82%
    15:00 +24°C° 0.8 mm 2 mps 734 mmHg 84%
    16:00 +23°C° 0.8 mm 2 mps 734 mmHg 85%
    17:00 +23°C° 0.8 mm 2 mps 734 mmHg 87%
    18:00 +21°C° 0.5 mm 2 mps 734 mmHg 89%
    19:00 +21°C° 0.5 mm 2 mps 734 mmHg 91%
    20:00 +20°C° 0.5 mm 2 mps 734 mmHg 93%
    21:00 +19°C° 0.1 mm 2 mps 734 mmHg 93%
    22:00 +19°C° 0.1 mm 2 mps 735 mmHg 93%
    23:00 +18°C° 0.1 mm 2 mps 735 mmHg 93%

    26 July, Thursday

    Time Temperature Precipitation Wind Pressure Humidity
    00:00 +18°C° 0 mm 2 mps 735 mmHg 92%
    01:00 +18°C° 0 mm 2 mps 735 mmHg 91%
    02:00 +18°C° 0 mm 2 mps 735 mmHg 90%
    03:00 +17°C° 0.1 mm 2 mps 735 mmHg 91%
    04:00 +17°C° 0.1 mm 2 mps 735 mmHg 92%
    05:00 +17°C° 0.1 mm 2 mps 736 mmHg 93%
    06:00 +19°C° 0 mm 3 mps 736 mmHg 92%
    07:00 +20°C° 0 mm 3 mps 736 mmHg 90%
    08:00 +21°C° 0 mm 3 mps 737 mmHg 88%
    09:00 +24°C° 0.7 mm 3 mps 737 mmHg 84%
    10:00 +25°C° 0.7 mm 4 mps 737 mmHg 80%
    11:00 +27°C° 0.7 mm 4 mps 737 mmHg 76%
    12:00 +27°C° 0.6 mm 4 mps 737 mmHg 75%
    13:00 +28°C° 0.6 mm 4 mps 737 mmHg 73%
    14:00 +28°C° 0.6 mm 4 mps 737 mmHg 71%
    15:00 +28°C° 0.7 mm 3 mps 737 mmHg 73%
    16:00 +28°C° 0.7 mm 3 mps 737 mmHg 76%
    17:00 +28°C° 0.7 mm 3 mps 737 mmHg 78%
    18:00 +26°C° 0.3 mm 3 mps 737 mmHg 81%
    19:00 +25°C° 0.3 mm 3 mps 737 mmHg 84%
    20:00 +24°C° 0.3 mm 3 mps 737 mmHg 87%
    21:00 +23°C° 0 mm 2 mps 737 mmHg 89%
    22:00 +21°C° 0 mm 2 mps 738 mmHg 91%
    23:00 +21°C° 0 mm 2 mps 738 mmHg 93%
    Show more